Meteo orario Alia

Oggi, 29 Ottobre, Giovedi

Tempo Temperatura Precipitazioni Vento Pressione Umidità
00:00 +10°C° 0 mm 2 m/s 711 mm Hg 88%
01:00 +10°C° 0 mm 2 m/s 711 mm Hg 87%
02:00 +10°C° 0 mm 2 m/s 710 mm Hg 87%
03:00 +9°C° 0 mm 2 m/s 710 mm Hg 87%
04:00 +9°C° 0 mm 2 m/s 710 mm Hg 87%
05:00 +9°C° 0 mm 2 m/s 710 mm Hg 86%
06:00 +9°C° 0 mm 2 m/s 711 mm Hg 85%
07:00 +9°C° 0 mm 2 m/s 711 mm Hg 84%
08:00 +12°C° 0 mm 2 m/s 712 mm Hg 75%
09:00 +14°C° 0 mm 2 m/s 712 mm Hg 67%
10:00 +16°C° 0 mm 2 m/s 713 mm Hg 59%
11:00 +17°C° 0 mm 2 m/s 713 mm Hg 55%
12:00 +18°C° 0 mm 3 m/s 713 mm Hg 51%
13:00 +19°C° 0 mm 3 m/s 713 mm Hg 49%
14:00 +19°C° 0 mm 3 m/s 713 mm Hg 51%
15:00 +18°C° 0 mm 2 m/s 713 mm Hg 53%
16:00 +18°C° 0 mm 2 m/s 713 mm Hg 56%
17:00 +16°C° 0 mm 2 m/s 713 mm Hg 63%
18:00 +15°C° 0 mm 1 m/s 713 mm Hg 70%
19:00 +14°C° 0 mm 1 m/s 713 mm Hg 77%
20:00 +13°C° 0 mm 1 m/s 713 mm Hg 77%
21:00 +13°C° 0 mm 1 m/s 713 mm Hg 78%
22:00 +13°C° 0 mm 1 m/s 713 mm Hg 78%
23:00 +13°C° 0 mm 1 m/s 713 mm Hg 78%

Domani, 30 Ottobre, Venerdi

Tempo Temperatura Precipitazioni Vento Pressione Umidità
00:00 +13°C° 0 mm 1 m/s 712 mm Hg 79%
01:00 +12°C° 0 mm 1 m/s 712 mm Hg 79%
02:00 +12°C° 0 mm 1 m/s 712 mm Hg 80%
03:00 +12°C° 0 mm 1 m/s 712 mm Hg 81%
04:00 +12°C° 0 mm 1 m/s 712 mm Hg 82%
05:00 +12°C° 0 mm 1 m/s 712 mm Hg 83%
06:00 +12°C° 0 mm 1 m/s 712 mm Hg 83%
07:00 +12°C° 0 mm 1 m/s 712 mm Hg 84%
08:00 +14°C° 0 mm 1 m/s 713 mm Hg 79%
09:00 +15°C° 0 mm 1 m/s 713 mm Hg 73%
10:00 +18°C° 0 mm 1 m/s 714 mm Hg 68%
11:00 +18°C° 0 mm 1 m/s 714 mm Hg 64%
12:00 +18°C° 0 mm 2 m/s 714 mm Hg 61%
13:00 +19°C° 0 mm 2 m/s 713 mm Hg 57%
14:00 +18°C° 0 mm 2 m/s 713 mm Hg 60%
15:00 +18°C° 0 mm 2 m/s 713 mm Hg 63%
16:00 +17°C° 0 mm 2 m/s 713 mm Hg 66%
17:00 +16°C° 0 mm 2 m/s 713 mm Hg 71%
18:00 +15°C° 0 mm 1 m/s 713 mm Hg 76%
19:00 +14°C° 0 mm 1 m/s 713 mm Hg 81%
20:00 +14°C° 0 mm 1 m/s 713 mm Hg 81%
21:00 +14°C° 0 mm 1 m/s 713 mm Hg 82%
22:00 +14°C° 0 mm 1 m/s 713 mm Hg 83%
23:00 +14°C° 0 mm 1 m/s 713 mm Hg 84%

Dopodomani, 31 Ottobre, Sabato

Tempo Temperatura Precipitazioni Vento Pressione Umidità
00:00 +13°C° 0 mm 1 m/s 713 mm Hg 85%
01:00 +13°C° 0 mm 1 m/s 713 mm Hg 86%
02:00 +13°C° 0 mm 1 m/s 713 mm Hg 86%
03:00 +13°C° 0 mm 1 m/s 713 mm Hg 86%
04:00 +11°C° 0 mm 0 m/s 713 mm Hg 86%
05:00 +12°C° 0 mm 1 m/s 713 mm Hg 86%
06:00 +12°C° 0 mm 1 m/s 713 mm Hg 85%
07:00 +12°C° 0 mm 1 m/s 713 mm Hg 85%
08:00 +14°C° 0 mm 1 m/s 713 mm Hg 77%
09:00 +16°C° 0 mm 1 m/s 714 mm Hg 69%
10:00 +19°C° 0 mm 1 m/s 714 mm Hg 61%
11:00 +19°C° 0 mm 1 m/s 714 mm Hg 59%
12:00 +20°C° 0 mm 1 m/s 714 mm Hg 56%
13:00 +21°C° 0 mm 1 m/s 714 mm Hg 54%
14:00 +20°C° 0 mm 1 m/s 714 mm Hg 57%
15:00 +20°C° 0 mm 1 m/s 713 mm Hg 60%
16:00 +19°C° 0 mm 1 m/s 713 mm Hg 63%
17:00 +18°C° 0 mm 1 m/s 713 mm Hg 71%
18:00 +16°C° 0 mm 1 m/s 713 mm Hg 79%
19:00 +15°C° 0 mm 1 m/s 713 mm Hg 86%
20:00 +14°C° 0 mm 1 m/s 713 mm Hg 87%
21:00 +14°C° 0 mm 1 m/s 713 mm Hg 89%
22:00 +13°C° 0 mm 1 m/s 713 mm Hg 90%
23:00 +13°C° 0 mm 1 m/s 713 mm Hg 89%

1 Novenbre, Domenica

Tempo Temperatura Precipitazioni Vento Pressione Umidità
00:00 +13°C° 0 mm 1 m/s 713 mm Hg 88%
01:00 +13°C° 0 mm 1 m/s 713 mm Hg 87%
02:00 +13°C° 0 mm 1 m/s 713 mm Hg 86%
03:00 +13°C° 0 mm 1 m/s 713 mm Hg 85%
04:00 +13°C° 0 mm 1 m/s 713 mm Hg 84%
05:00 +13°C° 0 mm 1 m/s 713 mm Hg 84%
06:00 +13°C° 0 mm 1 m/s 713 mm Hg 83%
07:00 +13°C° 0 mm 1 m/s 713 mm Hg 82%
08:00 +14°C° 0 mm 1 m/s 713 mm Hg 74%
09:00 +16°C° 0 mm 1 m/s 714 mm Hg 66%
10:00 +19°C° 0 mm 1 m/s 714 mm Hg 58%
11:00 +20°C° 0 mm 1 m/s 714 mm Hg 54%
12:00 +21°C° 0 mm 1 m/s 714 mm Hg 51%
13:00 +22°C° 0 mm 1 m/s 714 mm Hg 48%
14:00 +21°C° 0 mm 1 m/s 714 mm Hg 51%
15:00 +21°C° 0 mm 1 m/s 714 mm Hg 55%
16:00 +19°C° 0 mm 2 m/s 714 mm Hg 59%
17:00 +19°C° 0 mm 1 m/s 714 mm Hg 67%
18:00 +16°C° 0 mm 1 m/s 713 mm Hg 75%
19:00 +14°C° 0 mm 0 m/s 713 mm Hg 83%
20:00 +13°C° 0 mm 0 m/s 714 mm Hg 84%
21:00 +14°C° 0 mm 1 m/s 714 mm Hg 84%
22:00 +14°C° 0 mm 1 m/s 714 mm Hg 85%
23:00 +13°C° 0 mm 0 m/s 714 mm Hg 84%

2 Novenbre, Lunedi

Tempo Temperatura Precipitazioni Vento Pressione Umidità
00:00 +12°C° 0 mm 0 m/s 714 mm Hg 84%
01:00 +12°C° 0 mm 0 m/s 714 mm Hg 83%
02:00 +12°C° 0 mm 0 m/s 714 mm Hg 82%
03:00 +12°C° 0 mm 0 m/s 714 mm Hg 82%
04:00 +12°C° 0 mm 0 m/s 714 mm Hg 81%
05:00 +12°C° 0 mm 0 m/s 714 mm Hg 80%
06:00 +12°C° 0 mm 0 m/s 714 mm Hg 79%
07:00 +12°C° 0 mm 0 m/s 714 mm Hg 78%
08:00 +15°C° 0 mm 1 m/s 715 mm Hg 70%
09:00 +18°C° 0 mm 1 m/s 715 mm Hg 61%
10:00 +20°C° 0 mm 1 m/s 716 mm Hg 52%
11:00 +21°C° 0 mm 1 m/s 716 mm Hg 50%
12:00 +22°C° 0 mm 1 m/s 716 mm Hg 47%
13:00 +21°C° 0 mm 2 m/s 716 mm Hg 45%
14:00 +21°C° 0 mm 2 m/s 716 mm Hg 49%
15:00 +20°C° 0 mm 2 m/s 715 mm Hg 54%
16:00 +19°C° 0 mm 2 m/s 715 mm Hg 58%
17:00 +19°C° 0 mm 1 m/s 715 mm Hg 67%
18:00 +16°C° 0 mm 1 m/s 715 mm Hg 75%
19:00 +13°C° 0 mm 0 m/s 715 mm Hg 83%
20:00 +13°C° 0 mm 0 m/s 715 mm Hg 84%
21:00 +13°C° 0 mm 0 m/s 715 mm Hg 85%
22:00 +13°C° 0 mm 0 m/s 715 mm Hg 85%
23:00 +12°C° 0 mm 0 m/s 715 mm Hg 85%

3 Novenbre, Martedi

Tempo Temperatura Precipitazioni Vento Pressione Umidità
00:00 +12°C° 0 mm 0 m/s 715 mm Hg 85%
01:00 +12°C° 0 mm 0 m/s 714 mm Hg 85%
02:00 +12°C° 0 mm 0 m/s 714 mm Hg 84%
03:00 +12°C° 0 mm 0 m/s 714 mm Hg 84%
04:00 +13°C° 0 mm 1 m/s 714 mm Hg 83%
05:00 +12°C° 0 mm 1 m/s 714 mm Hg 83%
06:00 +12°C° 0 mm 1 m/s 714 mm Hg 83%
07:00 +12°C° 0 mm 1 m/s 714 mm Hg 83%
08:00 +14°C° 0 mm 1 m/s 714 mm Hg 75%
09:00 +16°C° 0 mm 1 m/s 715 mm Hg 68%
10:00 +19°C° 0 mm 1 m/s 715 mm Hg 60%
11:00 +20°C° 0 mm 1 m/s 715 mm Hg 58%
12:00 +20°C° 0 mm 2 m/s 715 mm Hg 56%
13:00 +21°C° 0 mm 2 m/s 715 mm Hg 54%
14:00 +20°C° 0 mm 2 m/s 715 mm Hg 58%
15:00 +19°C° 0 mm 2 m/s 715 mm Hg 63%
16:00 +19°C° 0 mm 2 m/s 715 mm Hg 68%
17:00 +18°C° 0 mm 2 m/s 714 mm Hg 74%
18:00 +16°C° 0 mm 1 m/s 714 mm Hg 80%
19:00 +14°C° 0 mm 0 m/s 714 mm Hg 85%
20:00 +14°C° 0 mm 0 m/s 714 mm Hg 85%
21:00 +14°C° 0 mm 0 m/s 714 mm Hg 85%
22:00 +13°C° 0 mm 0 m/s 714 mm Hg 85%
23:00 +13°C° 0 mm 0 m/s 714 mm Hg 86%
Mostrare altro

Abbiamo bisogno del tuo consenso

Meteoprog e i nostri fornitori di servizi possono memorizzare e accedere a dati personali come cookie, identificatori di dispositivi o altre tecnologie simili sul tuo dispositivo e possono elaborare tali dati per personalizzare i contenuti e gli annunci, nonché fornire funzionalità dei social media e analizzarne il traffico.

  • Archiviare e/o accedere alle informazioni sul tuo dispositivo

    Cookie, identificatori di dispositivi o altre informazioni possono essere memorizzati o resi accessibili sul tuo dispositivo per le finalità sopra indicate.

  • Annunci e contenuti personalizzati, misurazione di annunci e contenuti, approfondimenti sul pubblico e sviluppo di prodotti

    Gli annunci e i contenuti possono essere personalizzati in base a un profilo. È possibile aggiungere più dati per personalizzare meglio annunci e contenuti. È possibile misurare il rendimento degli annunci e dei contenuti. È possibile ricavare informazioni sul pubblico che ha visto gli annunci e i contenuti. Tali dati possono essere utilizzati per sviluppare o migliorare l'esperienza, i sistemi e il software dell'utente.

Cliccando su “Accetto”, acconsenti all'uso di cookie, identificatori di dispositivo, web beacon o altre tecnologie simili. Puoi modificare le impostazioni nel browser del tuo dispositivo.

Per determinati scopi, è possibile fare affidamento su interessi legali, piuttosto che sul consenso. Puoi approfondire questo argomento consultando la nostra Informativa sulla privacy e sui cookie.